COSMOS 2253

Satellite information

Favourite Embed

Satellite Type and Status

PAYLOADIN ORBIT

Key statistics

Satellite COSMOS 2253 at a glance.

Uptime

11861

Days in orbit

Revolutions

≈ 12.6

Per day

Orbit

LEO

Low Earth Orbit

Inclination

82.6

Latest

Satellite identification and parameters

Extended collection of information and parameters for COSMOS 2253.

Object identification

Identified? True

Debris? False

Object name: COSMOS 2253

International designator: 1993-038B

Object number (NORAD): 22688

Object ID (CCSDS): 22688

Country: COMMONWEALTH OF INDEPENDENT STATES (CIS)

Current information (Y/N): Y

RCS size: MEDIUM

Orbital parameters

Period: 114.141 minutes

Inclination: 82.588 deg

SMA: 7794.503 km

Apoapsis: 1426.351 km

Periapsis: 1406.385 km

RAAN: 15.5045 deg

Eccentricy: 0.0012808

Argument of periapsis: 71.2241 deg

Mean anomaly: 289.0238 deg

Mean motion: 12.6159553 rev/day

Mean motion (dot): 0.00000028 rev/day2

B* drag term: 0.000099669899 1/REarth

Two-line elements (TLE)

Creation date: Dec. 14, 2025, 3:07 a.m.

Reference frame: TEME

Reference center: EARTH

Epoch: Dec. 13, 2025, 1:23 p.m. UTC

TLE line 0: 0 COSMOS 2253

TLE line 1: 1 22688U 93038B 25347.55818843 .00000028 00000-0 99670-4 0 9997

TLE line 2: 2 22688 82.5880 15.5045 0012808 71.2241 289.0238 12.61595530495091

Live tracking on map

Real-time ground track for satellite COSMOS 2253.

In-orbit conjunctions

A list of the most updated potential collisions computed for object COSMOS 2253.

Target Orbit TCA Probability of collision Miss distance Type
THOR AGENA B DEB HEO 2025-04-30 10:31:04 0.000160793 221.0 (m) DEBRIS
SL-14 R/B LEO 2025-04-12 11:43:18 0.001848225 173.0 (m) ROCKET BODY
COSMOS 2330 LEO 2024-09-04 05:14:50 0.000213056 149.0 (m) PAYLOAD

Associated space launch

Second generation store-dump military communications satellites

COSMOS 2253 was lifted into orbit during the mission ‘Tsiklon-3 | Strela-3 95 to 100’, on board a Tsiklon-3 space rocket.

The launch took place on June 24, 1993, 4:12 a.m. from 32/1.

For more information about the launch, click the button.

Launch to space Tsiklon-3 | Strela-3 95 to 100
Tsiklon-3 | Strela-3 95 to 100

Agency: N/A

Status: Launch Successful

Launch date: June 24, 1993, 4:12 a.m. UTC

Rocket: Tsiklon-3

Launch pad: 32/1

Location: Plesetsk Cosmodrome, Russian Federation

...

Latest news about this satellite

There are no fresh news available about this satellite. Check back as we update our databases every day.


Newsletter sign-up

Weekly statistics, charts and insights to help you stay on top of the space industry.